GSAT-7

Last updated on Sun Jun 21 2026 00:03:05 GMT+0000 (Coordinated Universal Time)

1 39234U 13044B 26171.40667204 -.00000081 00000+0 00000+0 0 9997 2 39234 0.0920 92.8909 0002973 191.2522 204.8299 1.00270906 45293
UTC large
Height (km)
Speed (km/s)
/
Latitude / Longitude
Inclination (degrees)
Orbital Period (minutes)
Azimuth
Elevation
Range (km)
Doppler Factor

Next 0 passes for location: London (51.5072 / 0.1276)

No passes found over London.
GSAT-7